DW8548 Weather Reports


time (UTC)temp
F
wind
direction
speed
knots
gust
knots
rain 1hr
in
rain 24hr
in
rain mn
in
humidity
%
barometer
mb
20260509190107 56 19 0.0 1.7 0.00 0.00 0.00 61 1024.0
20260509184552 55 355 0.0 3.5 0.00 0.00 0.00 62 1024.0
20260509183053 53 0 0.0 0.9 0.00 0.00 0.00 64 1024.1
20260509181559 53 0 0.0 0.9 0.00 0.00 0.00 64 1024.1
20260509180100 53 0 0.0 0.9 0.00 0.00 0.00 63 1024.1
20260509174557 53 0 0.0 0.9 0.00 0.00 0.00 65 1024.3
20260509173056 53 0 0.0 0.0 0.00 0.00 0.00 64 1024.4
20260509171555 52 74 0.0 0.0 0.00 0.00 0.00 65 1024.4
20260509170106 53 0 0.0 0.9 0.00 0.00 0.00 64 1024.4
20260509164557 53 0 0.0 0.0 0.00 0.00 0.00 64 1024.4
20260509163055 53 0 0.0 0.9 0.00 0.00 0.00 63 1024.5
20260509161558 53 0 0.0 0.9 0.00 0.00 0.00 64 1024.5
20260509160053 53 0 0.0 0.9 0.00 0.00 0.00 64 1024.6
20260509154559 52 0 0.0 0.9 0.00 0.00 0.00 68 1024.7
20260509153059 50 95 0.0 0.9 0.00 0.00 0.00 72 1024.8
20260509151558 49 0 0.0 0.0 0.00 0.00 0.00 72 1025.0
20260509150055 51 0 0.0 0.0 0.00 0.00 0.00 70 1025.1
20260509144552 50 0 0.0 0.0 0.00 0.00 0.00 70 1025.1
20260509143056 51 0 0.0 0.0 0.00 0.00 0.00 68 1025.2
20260509141554 52 0 0.0 0.0 0.00 0.00 0.00 66 1025.3
20260509134625 52 0 0.0 0.0 0.00 0.00 0.00 65 1025.1
20260509133057 53 0 0.0 0.0 0.00 0.00 0.00 63 1025.1
20260509131557 54 0 0.0 0.0 0.00 0.00 0.00 61 1025.0
20260509130052 55 0 0.0 0.0 0.00 0.00 0.00 59 1024.9
20260509124629 56 0 0.0 0.0 0.00 0.00 0.00 58 1024.9
20260509123058 56 0 0.0 2.6 0.00 0.00 0.00 59 1024.9
20260509121556 56 0 0.0 0.0 0.00 0.00 0.00 59 1024.7
20260509120056 57 0 0.0 0.9 0.00 0.00 0.00 56 1024.7
20260509114558 59 0 0.0 0.9 0.00 0.00 0.00 54 1024.6
20260509113057 58 0 0.0 0.0 0.00 0.00 0.00 58 1024.5
20260509111558 56 0 0.0 0.9 0.00 0.00 0.00 65 1024.5
20260509110055 56 0 0.0 0.0 0.00 0.00 0.00 65 1024.6
20260509104555 58 0 0.0 0.0 0.00 0.00 0.00 60 1024.6
20260509103100 59 0 0.0 0.0 0.00 0.00 0.00 59 1024.6
20260509101601 60 0 0.0 0.0 0.00 0.00 0.00 58 1024.5
20260509100058 62 0 0.0 0.0 0.00 0.00 0.00 54 1024.4
20260509094600 62 0 0.0 0.0 0.00 0.00 0.00 52 1024.3
20260509093058 65 0 0.0 0.0 0.00 0.00 0.00 47 1024.3
20260509091555 66 0 0.0 0.0 0.00 0.00 0.00 44 1024.3
20260509090053 68 0 0.0 0.0 0.00 0.00 0.00 40 1024.3
20260509084555 70 0 0.0 1.7 0.00 0.00 0.00 36 1024.3
20260509083054 69 0 0.0 0.0 0.00 0.00 0.00 38 1024.2
20260509081555 70 0 0.0 1.7 0.00 0.00 0.00 36 1024.2
20260509080055 71 0 0.0 1.7 0.00 0.00 0.00 36 1024.2
20260509074603 72 0 0.0 1.7 0.00 0.00 0.00 36 1024.1
20260509073101 73 0 0.0 4.3 0.00 0.00 0.00 34 1024.0
20260509071608 74 0 0.0 3.5 0.00 0.00 0.00 33 1023.9
20260509070053 74 0 0.0 3.5 0.00 0.00 0.00 34 1023.7
20260509064559 74 0 0.0 1.7 0.00 0.00 0.00 34 1023.5
20260509063055 74 0 0.0 2.6 0.00 0.00 0.00 34 1023.5
20260509061623 73 69 0.9 7.0 0.00 0.00 0.00 35 1023.5
20260509060054 74 0 0.0 2.6 0.00 0.00 0.00 35 1023.6
20260509054555 74 61 0.0 2.6 0.00 0.00 0.00 36 1023.7
20260509053056 74 208 0.0 3.5 0.00 0.00 0.00 39 1023.9
20260509051552 73 347 0.9 5.2 0.00 0.00 0.00 38 1024.0
20260509050105 73 311 0.9 3.5 0.00 0.00 0.00 40 1024.1
20260509044556 72 111 0.9 6.1 0.00 0.00 0.00 40 1024.4
20260509043058 72 0 0.9 5.2 0.00 0.00 0.00 41 1024.7
20260509041554 71 345 0.0 3.5 0.00 0.00 0.00 42 1025.1
20260509040054 71 0 0.0 3.5 0.00 0.00 0.00 43 1025.5
20260509034555 70 12 0.9 7.0 0.00 0.00 0.00 44 1025.7
20260509033311 69 174 0.9 6.1 0.00 0.00 0.00 45 1026.0
20260509031554 68 348 0.9 2.6 0.00 0.00 0.00 46 1026.3
20260509030057 67 235 0.0 3.5 0.00 0.00 0.00 49 1026.8
20260509024604 66 355 0.0 3.5 0.00 0.00 0.00 49 1026.9
20260509021554 64 283 0.9 5.2 0.00 0.00 0.00 51 1027.1
20260509014559 62 180 0.9 6.1 0.00 0.00 0.00 53 1027.1
20260509013058 61 333 0.9 4.3 0.00 0.00 0.00 54 1027.3
20260509011601 61 162 0.9 5.2 0.00 0.00 0.00 56 1027.4
20260509010237 60 344 0.9 6.1 0.00 0.00 0.00 57 1027.6
20260509010110 60 344 0.9 6.1 0.00 0.00 0.00 57 1027.6
20260509004619 59 234 0.9 4.3 0.00 0.00 0.00 60 1027.7
20260509003057 57 0 0.9 3.5 0.00 0.00 0.00 63 1027.6
20260509001557 56 15 0.9 5.2 0.00 0.00 0.00 66 1027.6
20260509000056 55 0 0.0 2.6 0.00 0.00 0.00 68 1027.5
20260508234606 54 72 0.0 2.6 0.00 0.00 0.00 69 1027.5
20260508233057 52 0 0.0 1.7 0.00 0.00 0.00 74 1027.2
20260508231558 49 0 0.0 0.9 0.00 0.00 0.00 77 1027.3
20260508230057 48 0 0.0 0.9 0.00 0.00 0.00 78 1027.1
20260508224558 47 0 0.0 1.7 0.00 0.00 0.00 79 1027.0
20260508223057 46 0 0.0 0.0 0.00 0.00 0.00 79 1026.8
20260508221553 46 0 0.0 0.0 0.00 0.00 0.00 77 1026.9
20260508220059 47 0 0.0 0.0 0.00 0.00 0.00 75 1027.1
20260508214607 48 0 0.0 0.0 0.00 0.00 0.00 74 1027.0
20260508213053 49 0 0.0 0.0 0.00 0.00 0.00 73 1026.9
20260508211558 50 0 0.0 0.0 0.00 0.00 0.00 71 1026.9
20260508210056 51 0 0.0 0.9 0.00 0.00 0.00 71 1026.7
20260508204556 50 0 0.0 0.0 0.00 0.00 0.00 70 1026.5
20260508203056 52 0 0.0 0.9 0.00 0.00 0.00 67 1026.3
20260508201557 53 314 0.0 1.7 0.00 0.00 0.00 65 1026.3
20260508200054 55 0 0.0 0.9 0.00 0.00 0.00 62 1026.1
20260508194555 56 0 0.0 1.7 0.00 0.00 0.00 60 1026.1
20260508193107 56 0 0.0 1.7 0.00 0.00 0.00 59 1026.0
20260508191557 56 0 0.0 1.7 0.00 0.00 0.00 59 1026.0